Home   Weather   Fort Bragg   Past weeks

Flag for USA Past Weather in Fort Bragg, California, USA — Yesterday and Last 2 Weeks

Now
44 °F

Sunny.


Feels Like: 44 °F
Forecast: 50 / 58 °F
Wind: No wind

Location: Ukiah Municipal

Current Time: Dec 3, 2016 at 9:52:22 am

Latest Report: Dec 3, 2016 at 8:56 am


Visibility: 10 mi

Pressure: 30.31 "Hg

Humidity: 82%

Dew Point: 39 °F

Location of Fort BraggLocation

Past Weather in Fort Bragg — Graph

°F

Fort Bragg Temperature Yesterday

Maximum temperature yesterday: 59 °F (at 1:56 pm)
Minimum temperature yesterday: 31 °F (at 6:56 am)
Average temperature yesterday: 43 °F

High & Low Weather Summary for the Past Weeks

 TemperatureHumidityPressure
High62 °F (Nov 18, 11:56 am)100% (Nov 19, 2:56 am)30.40 "Hg (Nov 19, 2:56 am)
Low31 °F (Dec 2, 6:56 am)30% (Nov 18, 1:56 pm)29.77 "Hg (Nov 26, 1:56 pm)
Average48 °F83%30.07 "Hg
* Reported Nov 18 8:56 am — Dec 3 8:56 am, Fort Bragg, Weather by CustomWeather, © 2016

Note: Actual official high and low records may vary slightly from our data, if they occured in-between our weather recording intervals... More about our weather records

Advertising

Fort Bragg Weather History for the Previous 24 Hours

Scroll right to see more
 ConditionsComfort  
Time TempWeatherWind HumidityBarometerVisibility
8:56 am
Sat, Dec 3
44 °FSunny.No wind82%30.31 "Hg10 mi
7:56 am38 °FSunny.No wind93%30.30 "Hg10 mi
6:56 am36 °FClear.No wind92%30.30 "Hg10 mi
5:56 am36 °FClear.No wind92%30.29 "Hg10 mi
4:56 am36 °FClear.No wind92%30.29 "Hg10 mi
3:56 am37 °FClear.No wind93%30.27 "Hg9 mi
2:56 am38 °FClear.No wind93%30.27 "Hg8 mi
1:56 am38 °FClear.No wind93%30.27 "Hg7 mi
12:56 am38 °FClear.No wind93%30.27 "Hg9 mi
11:56 pm
Fri, Dec 2
38 °FClear.No wind93%30.27 "Hg9 mi
10:56 pm41 °FFog.3 mph89%30.26 "Hg6 mi
9:56 pm43 °FClear.5 mph82%30.27 "Hg10 mi
8:56 pm43 °FClear.No wind86%30.25 "Hg8 mi
7:56 pm44 °FClear.No wind82%30.25 "Hg8 mi
6:56 pm47 °FClear.No wind74%30.25 "Hg9 mi
5:56 pm49 °FClear.No wind69%30.23 "Hg10 mi
4:56 pm51 °FClear.No wind66%30.23 "Hg9 mi
3:56 pm56 °FSunny.3 mph49%30.22 "Hg10 mi
2:56 pm59 °FSunny.3 mph42%30.22 "Hg10 mi
1:56 pm59 °FSunny.3 mph39%30.23 "Hg10 mi
12:56 pm56 °FSunny.3 mph42%30.24 "Hg10 mi
11:56 am53 °FSunny.No wind45%30.26 "Hg10 mi
10:56 am48 °FSunny.No wind54%30.30 "Hg10 mi
9:56 am43 °FSunny.No wind74%30.31 "Hg10 mi
Weather by CustomWeather, © 2016

See weather overviewHow to use our weather pages